Dewpoint
61 60 59 58 56 55 55 54 53 53 54 55 55 56 55 53 50 32 34 42 39 41 38 31 33 31 27 25 21 21 25 23 25 24 23 22 22 24 25 23 24 23 25 26 26
57 56 55 54 53 53 52 51 51 52 54 56 56 55 53 52 40 32 45 45 45 37 30 28 25 29 23 24 23 23 22 22 23 22 22 23 23 23 23 23 23 25 26 26 26
53 53 53 53 53 52 51 51 51 52 53 56 55 54 52 49 31 30 45 48 48 41 32 32 31 27 23 24 23 21 16 22 22 24 24 23 22 23 23 22 25 25 24 24 26
52 52 52 52 51 50 50 49 51 52 53 55 52 53 50 41 2 38 48 48 46 40 35 32 27 25 23 21 24 20 22 22 22 24 25 23 24 24 25 26 24 23 24 28 36
51 51 50 50 49 49 49 49 50 52 54 52 51 51 40 21 11 41 44 41 37 35 30 26 28 29 23 24 25 23 23 25 26 26 26 26 25 25 26 25 23 23 27 38 39
50 49 47 47 48 49 50 50 50 52 52 51 49 49 35 13 33 40 40 40 37 33 32 31 29 30 26 24 24 27 26 26 26 26 26 26 24 25 24 25 24 23 35 40 41
49 47 46 48 49 49 50 51 50 52 51 49 49 43 34 17 33 37 38 34 37 38 31 34 34 26 28 26 29 28 25 24 24 25 24 24 21 22 24 25 24 24 35 40 41
49 47 46 47 49 50 51 52 53 52 51 49 47 42 23 32 35 34 34 33 35 32 37 38 37 31 30 31 28 25 25 15 23 23 24 22 10 21 24 24 23 23 36 39 40
48 46 46 47 48 50 49 51 50 50 51 49 42 37 17 30 29 38 38 38 40 38 35 38 35 31 30 26 21 25 9 20 20 22 21 19 14 21 23 23 24 25 36 37 38
47 45 46 47 48 49 48 49 49 48 47 45 42 34 22 15 34 36 40 41 37 34 34 35 31 26 26 23 5 10 17 19 17 18 20 17 15 17 23 23 26 31 36 36 36
46 45 46 46 48 48 45 38 31 33 41 24 19 24 21 31 32 35 40 40 36 32 23 32 24 19 14 21 24 23 21 19 18 20 20 18 19 20 23 24 27 33 35 36 34
45 44 46 46 47 48 44 29 36 41 16 22 27 27 30 33 21 31 38 34 32 20 30 29 22 22 29 31 28 26 23 19 16 20 22 20 20 21 29 30 34 35 36 36 35
44 44 45 46 46 45 41 36 45 45 27 16 29 29 29 31 14 8 32 31 27 21 24 18 18 27 31 28 26 22 20 16 18 19 21 22 19 23 31 34 35 36 36 36 36
45 43 44 44 40 42 40 44 45 46 17 9 24 32 38 32 24 29 25 18 23 18 19 21 20 25 24 20 19 17 20 21 20 20 16 25 9 18 26 30 34 35 36 36 35
45 45 45 44 40 39 44 46 45 40 -2 12 30 37 37 30 34 35 31 20 11 17 22 14 24 24 23 21 22 19 25 24 25 24 22 20 19 14 25 25 29 34 36 36 35
46 45 47 44 43 44 44 46 44 18 -9 10 32 34 33 32 32 31 27 31 28 21 24 17 28 26 21 24 25 28 26 25 25 22 14 14 16 7 21 23 25 32 34 35 35
47 46 44 42 34 44 44 45 18 -0 -6 6 22 31 29 24 30 31 25 26 20 19 18 20 21 23 26 24 27 26 24 14 12 16 10 20 18 14 22 26 27 30 33 35 37
48 47 45 41 43 43 45 33 8 -13 -13 10 15 28 21 26 25 28 27 23 26 23 19 12 11 24 28 24 19 24 21 16 9 6 9 20 14 14 25 29 32 33 34 36 38
47 45 43 45 45 42 40 23 -9 -15 1 5 6 -4 5 22 22 24 25 22 22 26 19 18 16 23 26 28 25 25 23 22 19 17 17 13 13 28 33 33 34 34 35 36 38
41 39 38 45 46 39 34 16 8 15 20 15 -7 1 -7 -3 11 15 15 20 24 26 28 22 10 9 20 26 26 25 24 20 22 15 10 8 9 12 28 30 34 34 35 36 38
38 34 39 45 42 35 26 18 15 24 24 14 7 6 8 10 12 8 4 22 26 24 23 23 22 12 25 20 14 22 23 24 22 20 16 12 9 21 19 23 29 32 34 35 37
38 31 40 43 31 29 25 21 23 21 24 21 22 18 9 11 13 12 13 21 28 21 13 15 14 13 11 19 27 24 22 22 22 18 26 22 17 24 26 27 28 30 34 35 37
35 33 40 42 25 26 20 21 23 23 18 19 16 18 13 12 11 10 10 17 25 21 20 23 12 10 2 13 27 26 25 26 30 32 25 20 20 29 31 31 32 33 35 36 33
34 28 33 36 30 23 19 17 19 24 22 25 24 26 19 16 16 12 19 29 31 28 32 32 24 19 8 6 17 23 23 24 26 24 21 19 17 18 27 30 33 34 34 33 31
35 31 31 27 29 27 22 18 16 17 22 21 19 21 19 17 16 17 18 19 23 23 24 26 21 20 19 19 20 21 20 19 19 22 22 21 18 18 20 24 30 33 34 32 29
31 31 33 25 27 27 24 21 16 16 16 17 18 18 19 17 15 13 17 18 18 19 24 28 21 22 19 19 19 18 19 19 18 20 21 21 20 21 26 30 33 33 31 29 27
37 36 29 26 27 27 25 23 19 20 19 19 19 21 22 20 24 26 27 26 25 24 24 23 23 21 20 18 23 19 18 17 18 17 20 22 24 24 28 28 29 30 29 28 26
Wind_Speed
5 3 3 3 4 6 8 9 12 14 15 15 16 17 20 22 27 10 3 4 6 12 8 5 4 5 3 0 2 3 7 8 2 5 6 2 4 2 5 2 6 4 9 14 16
2 2 2 4 6 6 7 9 11 13 14 14 15 17 20 22 16 6 4 3 6 10 3 7 7 7 2 1 1 6 8 3 4 4 3 1 6 10 6 9 1 9 10 13 15
2 1 2 3 4 7 7 9 10 12 13 14 14 17 21 20 10 3 4 6 8 7 4 4 4 5 5 3 1 0 7 2 4 3 4 7 9 8 9 7 12 12 11 13 13
3 3 3 3 5 7 8 9 10 11 12 11 13 18 22 7 7 4 6 5 6 5 5 5 4 5 4 5 1 6 3 3 3 1 4 8 8 7 8 6 7 8 11 12 15
4 4 4 4 6 8 8 8 9 11 11 10 11 16 9 6 8 4 3 3 3 3 4 5 4 3 5 2 4 7 4 4 5 9 9 9 11 10 5 4 3 6 10 12 15
4 3 4 4 6 7 8 9 10 9 8 9 10 15 4 12 3 2 4 2 1 1 3 2 1 1 2 5 6 2 5 10 8 12 10 10 5 6 9 5 5 5 9 12 14
3 4 5 5 5 6 7 8 9 9 7 6 7 7 7 14 1 4 4 2 1 2 3 4 1 6 1 3 1 4 10 9 6 2 4 5 9 9 5 5 6 4 7 11 12
4 2 2 4 6 6 7 7 5 5 6 5 6 4 9 1 5 8 5 7 7 6 3 4 1 2 5 1 4 6 5 8 7 3 0 5 6 12 2 7 9 9 6 8 12
6 2 2 3 5 6 5 5 6 5 1 2 4 3 8 2 4 2 2 3 7 5 7 3 4 4 5 8 7 6 10 6 5 2 2 3 9 8 10 11 11 10 3 6 8
6 3 2 3 4 4 6 3 3 3 3 4 4 5 6 2 2 2 3 6 4 12 9 6 5 9 7 10 10 6 8 8 8 2 10 17 20 14 11 11 10 5 3 6 8
7 3 1 3 4 3 6 2 3 3 5 9 4 5 6 9 5 3 4 6 8 8 8 9 11 13 9 9 5 6 10 14 13 10 12 15 15 15 13 14 9 3 3 6 9
7 3 1 2 3 1 4 1 2 3 11 13 18 16 10 5 6 7 4 9 10 12 7 7 15 11 5 5 8 11 14 16 14 6 9 16 19 20 7 3 2 2 5 7 8
9 5 1 2 1 0 0 2 1 2 7 6 4 6 3 8 8 14 10 7 11 12 13 16 3 1 9 8 12 13 15 16 13 13 18 16 24 9 5 5 3 3 3 4 5
11 8 3 2 2 1 3 3 4 5 6 4 4 3 4 4 5 4 8 10 9 13 11 12 14 10 9 13 11 15 8 13 13 9 9 2 10 9 11 8 7 6 6 6 6
13 9 6 4 2 3 3 2 7 4 6 5 5 6 4 4 1 3 2 7 12 9 7 2 5 8 13 14 5 8 3 6 8 13 15 16 10 4 9 13 12 10 9 9 7
15 11 9 2 2 1 4 3 2 4 10 4 5 5 5 6 4 7 5 4 1 6 8 10 1 6 7 5 8 1 7 9 10 12 15 15 15 7 11 13 11 11 11 11 9
16 13 8 3 2 0 1 3 4 10 3 6 4 5 4 7 7 6 9 7 4 5 8 7 15 9 10 9 7 12 7 7 8 10 13 4 9 20 9 7 6 12 14 13 10
19 15 5 2 2 5 5 3 10 4 7 2 3 6 5 8 5 7 6 7 8 5 3 6 6 11 10 14 5 14 13 8 9 11 13 10 9 3 2 6 8 9 11 14 11
17 9 4 4 6 3 8 10 15 12 3 5 4 6 5 5 3 7 8 8 4 12 7 5 8 4 8 4 10 7 10 11 19 21 19 19 21 11 9 9 10 13 14 15 12
16 10 5 8 6 3 9 10 10 2 1 3 11 4 13 9 8 7 10 5 4 2 5 2 12 10 5 6 7 10 3 9 10 12 22 18 17 17 12 13 14 16 18 16 13
12 8 6 11 7 6 14 11 9 4 1 4 7 6 4 6 5 8 5 6 4 5 3 1 5 7 4 11 19 10 15 12 15 17 22 25 21 7 2 5 14 16 18 17 15
9 8 9 15 12 9 20 9 4 6 8 5 3 7 11 6 6 7 8 1 4 4 6 5 6 16 18 10 6 12 19 20 22 18 12 20 29 2 4 7 7 10 15 15 15
13 5 5 7 16 18 14 17 9 6 11 5 8 9 8 13 6 10 10 5 6 4 4 2 9 19 24 16 16 13 16 17 9 6 18 22 25 4 3 4 7 11 14 15 15
8 9 5 9 14 22 20 21 21 8 14 4 3 5 10 11 13 8 9 5 3 4 2 2 12 17 23 18 15 13 14 16 21 19 25 30 30 25 11 12 9 13 15 16 16
9 7 10 16 22 18 21 10 23 17 10 13 14 14 11 13 14 17 16 15 13 8 9 6 18 19 23 24 22 25 26 26 29 29 29 34 27 31 23 14 12 13 15 16 14
10 7 6 12 22 24 21 27 21 15 19 14 16 8 16 23 19 14 9 11 14 11 12 6 14 13 24 20 22 27 29 32 31 33 34 35 37 28 9 1 7 13 14 14 14
6 6 9 13 22 21 28 24 17 17 16 15 15 14 14 14 10 12 14 16 18 17 16 17 16 13 27 17 12 18 34 32 30 31 29 31 34 20 8 7 9 11 13 14 15
Wind_Direction
257 266 293 321 338 346 350 344 335 331 331 329 326 324 326 325 316 297 341 25 329 325 307 303 293 337 266 141 330 284 247 248 223 209 118 86 313 36 323 300 327 11 348 341 335
93 39 3 346 343 348 353 347 337 330 330 329 329 324 324 325 311 287 30 11 349 338 349 3 6 335 255 246 225 260 263 14 33 73 109 343 323 322 319 333 213 328 345 343 348
117 98 23 347 348 353 359 352 335 327 326 328 333 326 323 320 287 111 51 345 349 331 9 342 331 302 256 231 191 273 279 107 118 82 344 308 302 322 327 305 346 331 339 354 359
87 65 46 20 6 6 356 350 334 329 326 321 330 328 319 296 310 107 38 359 321 315 306 314 307 256 246 233 154 253 276 266 163 192 282 285 303 283 294 324 347 353 0 17 20
90 81 40 16 8 6 349 340 322 327 324 323 337 330 323 287 275 83 351 2 269 281 299 288 251 244 252 251 254 245 253 254 258 274 268 278 261 268 246 47 1 0 46 36 24
106 74 54 10 3 3 342 330 319 311 312 317 336 318 303 283 80 43 351 274 42 212 129 186 217 236 263 261 256 84 273 278 278 273 277 269 247 210 177 7 339 18 49 47 39
116 74 17 2 6 359 340 322 304 298 299 317 340 330 281 267 316 290 289 246 155 59 162 112 115 234 177 234 294 287 282 268 272 256 169 273 220 207 134 324 306 14 52 53 48
144 98 36 358 9 5 353 340 313 284 289 322 335 320 270 242 292 269 244 236 240 238 224 154 171 219 237 114 234 261 265 263 134 234 141 241 267 180 294 324 310 329 56 58 54
158 112 360 13 12 350 349 321 323 336 276 274 284 325 270 257 255 67 194 127 127 152 170 124 208 241 195 227 247 193 271 249 218 205 261 274 293 251 300 291 310 329 94 85 78
164 111 348 357 10 357 312 290 322 276 257 269 263 259 247 301 314 320 150 164 122 141 153 185 206 238 225 222 268 295 250 224 252 175 289 284 273 270 275 280 300 310 106 101 85
166 140 282 341 37 5 302 249 240 205 222 252 288 277 277 326 268 228 177 170 147 197 223 201 220 232 250 239 282 260 262 274 276 271 291 272 277 281 275 277 280 217 143 114 104
172 157 229 1 33 110 305 264 42 358 289 242 256 263 261 304 285 204 194 206 214 240 173 204 243 258 271 235 235 248 263 270 280 274 271 282 283 281 299 264 261 181 148 139 129
171 156 267 13 20 309 261 139 189 357 264 274 228 254 246 200 242 233 201 221 233 243 225 253 330 43 203 225 240 247 265 273 276 292 279 280 277 184 181 172 144 132 128 133 129
173 162 158 63 265 248 190 269 241 222 274 185 192 168 156 190 229 246 241 228 211 246 237 259 263 232 227 246 255 269 268 264 269 274 275 68 286 216 189 211 204 187 181 164 153
172 172 151 201 148 223 57 26 143 215 278 129 133 131 154 212 120 101 167 199 229 203 193 207 201 211 230 248 240 273 264 252 267 270 282 266 258 188 187 223 211 202 191 181 169
172 168 143 169 223 174 326 268 206 202 237 145 135 181 183 180 155 129 157 209 132 197 229 259 268 230 237 224 230 209 235 243 258 263 263 259 222 260 185 219 202 200 197 184 175
173 174 177 172 212 345 214 180 197 221 119 161 162 183 198 164 161 171 168 165 173 185 212 219 236 223 214 223 208 219 251 271 251 216 257 97 252 248 191 207 219 201 197 187 178
174 170 173 204 208 319 190 174 211 259 208 110 147 164 188 165 175 171 170 199 208 220 247 255 217 197 179 217 262 214 231 249 266 263 274 173 255 264 216 193 212 201 191 183 180
145 172 177 198 233 292 207 207 223 229 159 174 197 250 203 179 224 187 219 241 226 209 239 228 229 161 202 192 206 158 224 265 273 271 269 261 261 175 177 197 197 201 195 194 177
168 167 199 162 173 190 199 230 245 219 262 211 241 250 249 227 216 221 210 142 126 94 225 254 269 258 220 204 214 244 328 248 233 265 258 260 260 265 200 221 213 212 209 201 183
159 167 156 157 164 197 209 219 233 218 211 242 236 234 241 219 237 221 236 115 122 92 24 277 256 234 210 225 250 210 236 244 272 257 264 271 270 44 286 221 209 218 210 202 184
144 178 162 163 173 201 224 212 223 191 221 236 268 238 242 234 243 242 249 317 95 350 303 305 281 266 257 269 248 257 264 274 252 253 251 273 271 147 236 245 233 206 194 194 172
152 128 169 208 196 211 218 221 229 199 214 197 219 233 240 243 255 240 248 297 346 324 315 316 247 270 264 228 232 244 246 243 236 283 262 265 267 136 185 190 190 183 179 168 168
146 156 161 200 224 220 214 222 223 211 227 187 224 234 229 237 237 249 231 179 2 327 340 249 251 248 263 278 318 270 266 256 243 254 261 258 273 267 232 236 215 188 176 176 176
183 190 172 190 208 218 218 226 222 221 218 215 230 229 224 235 232 238 245 260 270 264 282 255 264 268 270 271 274 274 275 270 265 255 254 270 271 277 281 283 237 218 180 171 170
177 156 174 191 192 208 212 226 229 220 227 216 233 205 231 243 251 260 261 256 269 261 259 237 266 276 270 268 266 268 268 263 260 260 263 264 268 276 298 195 188 188 189 184 176
195 171 170 197 191 190 217 221 222 221 224 230 245 241 242 251 276 277 279 273 266 265 258 266 267 272 273 284 285 271 256 262 262 257 252 256 260 296 258 227 212 197 192 183 168